Probability
35 35 32 32 39 42 42 35 19 19 19 23 29 26 29 26 10 16 16 6 3 0 0 0 0 0 0 0 3 3 6 6 6 10 10 13 23 19
35 35 39 35 39 35 35 39 29 26 29 26 29 32 26 19 13 13 16 10 3 0 0 0 0 0 0 0 0 3 3 3 6 6 6 6 10 13
23 29 32 39 39 32 32 35 35 35 26 23 26 32 35 26 13 13 19 10 10 3 0 0 0 0 0 0 0 0 0 0 3 6 6 6 6 3
23 29 29 29 35 32 32 35 35 35 29 23 19 26 23 23 16 16 13 6 6 6 3 0 0 0 0 0 0 0 0 0 0 0 3 3 6 6
32 29 29 29 35 35 32 32 35 26 32 29 19 26 23 10 10 10 10 10 6 6 6 0 0 0 0 0 0 0 0 0 0 0 0 0 0 3
23 26 23 26 29 29 23 29 26 29 26 26 26 19 16 13 13 6 3 6 6 6 6 6 6 0 0 0 0 0 0 0 0 0 0 0 0 0
19 23 16 19 19 16 10 23 19 19 16 13 13 19 13 13 6 6 3 3 3 3 6 6 3 3 3 0 0 0 0 0 0 0 0 0 0 0
23 16 19 16 16 6 3 3 10 13 13 10 10 10 10 10 6 3 3 3 3 3 0 0 0 0 3 3 3 0 0 0 0 0 0 0 0 0
16 13 10 6 10 16 6 3 3 0 0 6 10 10 13 13 6 6 6 3 3 3 3 3 3 3 0 0 3 0 0 0 0 0 0 0 0 0
10 10 16 16 6 6 10 10 13 13 6 6 6 10 10 10 6 6 3 3 6 3 3 3 3 3 3 3 0 0 0 0 0 0 0 0 0 0
10 10 13 10 6 0 3 10 10 13 3 3 3 3 3 6 10 6 6 3 3 3 3 3 3 3 3 3 3 0 0 0 0 0 0 0 0 0
10 6 0 0 0 0 3 6 13 6 6 3 3 3 3 6 6 6 6 6 6 3 3 3 3 3 3 3 3 3 0 0 0 0 0 0 0 0
6 10 3 0 0 0 0 6 6 3 6 3 6 6 10 10 6 10 6 6 6 3 3 3 3 3 3 3 0 3 3 3 0 0 0 0 0 0
6 10 0 0 0 0 0 0 0 0 3 3 3 3 10 6 6 10 10 10 10 3 3 3 3 3 3 0 0 0 3 3 6 3 3 0 0 0
0 0 0 0 0 0 0 0 0 0 3 3 3 3 6 6 6 6 10 10 10 3 3 3 3 3 3 0 0 0 0 3 6 6 3 0 0 0
0 0 0 0 0 0 0 0 0 0 0 0 0 3 6 6 3 6 3 3 3 3 3 3 3 3 3 3 3 0 0 3 3 3 3 0 0 0
0 3 0 0 0 0 6 3 3 3 0 3 3 0 0 0 0 0 3 3 3 3 3 3 3 6 6 3 3 0 0 3 3 3 3 3 0 0
0 0 6 6 0 0 0 0 0 0 0 0 3 0 0 0 0 0 0 0 0 0 0 3 3 3 3 0 0 0 3 3 3 3 3 0 0 0
0 0 0 0 0 3 3 0 3 6 3 3 3 3 0 0 0 0 0 0 0 0 0 3 3 3 0 0 0 0 0 0 3 0 0 0 0 0
0 0 0 0 0 0 3 6 6 6 3 3 3 3 0 0 0 0 0 0 0 0 0 0 0 0 0 0 0 0 0 0 0 0 0 0 0 0
0 0 0 0 0 3 6 3 3 6 6 3 3 3 3 0 0 0 0 0 0 0 0 0 0 0 0 0 0 0 0 0 0 0 0 0 0 0
0 0 0 0 0 3 6 10 6 3 3 3 3 3 3 3 3 0 0 0 0 0 0 0 0 0 0 0 0 0 0 0 0 0 0 0 0 0
0 0 0 0 0 0 0 3 0 0 0 0 0 3 3 3 3 3 0 0 0 0 0 0 0 0 0 0 0 0 0 0 0 0 0 0 0 0
Height
5833 5832 5831 5831 5830 5829 5828 5827 5826 5825 5824 5823 5821 5821 5821 5821 5821 5821 5821 5822 5822 5823 5824 5825 5826 5827 5828 5829 5830 5831 5832 5833 5834 5834 5835 5836 5836 5837
5828 5827 5826 5825 5824 5823 5822 5820 5819 5818 5817 5817 5815 5814 5814 5814 5814 5814 5815 5815 5816 5817 5818 5819 5820 5820 5821 5822 5824 5825 5825 5826 5827 5828 5829 5830 5830 5831
5823 5822 5821 5820 5818 5817 5815 5814 5813 5812 5811 5810 5809 5808 5808 5808 5808 5808 5808 5809 5810 5810 5811 5812 5813 5813 5814 5815 5816 5817 5818 5819 5820 5821 5822 5823 5824 5824
5818 5817 5815 5814 5812 5811 5810 5808 5807 5805 5804 5804 5803 5802 5802 5801 5801 5801 5802 5803 5803 5803 5804 5804 5805 5806 5807 5808 5808 5809 5810 5811 5812 5813 5814 5815 5816 5817
5813 5811 5810 5808 5806 5805 5803 5802 5800 5799 5798 5797 5796 5795 5795 5794 5794 5794 5794 5794 5795 5796 5796 5797 5797 5798 5799 5800 5801 5801 5802 5803 5804 5805 5806 5807 5808 5809
5807 5805 5803 5802 5800 5798 5797 5795 5794 5792 5791 5790 5789 5788 5788 5787 5787 5787 5787 5786 5787 5787 5788 5788 5789 5790 5791 5791 5793 5794 5794 5795 5796 5797 5798 5799 5800 5801
5801 5799 5797 5795 5793 5792 5790 5788 5787 5785 5784 5783 5781 5781 5780 5779 5779 5778 5778 5778 5778 5778 5779 5779 5780 5781 5782 5783 5784 5785 5786 5787 5788 5789 5790 5791 5792 5793
5794 5792 5790 5788 5786 5784 5782 5781 5779 5778 5776 5775 5774 5773 5772 5771 5770 5770 5770 5770 5770 5770 5770 5771 5771 5772 5773 5774 5775 5776 5777 5778 5779 5780 5782 5783 5784 5784
5787 5785 5783 5780 5778 5776 5775 5773 5771 5770 5768 5767 5766 5764 5764 5763 5762 5761 5761 5760 5761 5761 5761 5762 5763 5763 5764 5765 5766 5767 5768 5769 5770 5772 5773 5774 5775 5776
5780 5778 5775 5773 5771 5768 5767 5765 5763 5761 5760 5759 5757 5756 5755 5754 5753 5753 5752 5752 5752 5752 5752 5753 5754 5754 5755 5756 5757 5758 5759 5760 5762 5763 5764 5765 5766 5767
5773 5771 5768 5766 5763 5761 5759 5757 5755 5753 5752 5750 5749 5748 5746 5745 5744 5744 5744 5743 5743 5744 5744 5744 5744 5745 5746 5747 5748 5749 5750 5751 5752 5754 5755 5756 5757 5758
5767 5764 5761 5758 5755 5753 5750 5748 5747 5745 5743 5742 5741 5739 5738 5737 5736 5735 5735 5734 5734 5735 5735 5735 5735 5736 5737 5738 5738 5739 5740 5741 5743 5744 5746 5747 5748 5750
5759 5756 5753 5750 5747 5745 5742 5740 5738 5736 5735 5733 5732 5730 5729 5728 5727 5726 5725 5725 5725 5725 5726 5726 5726 5726 5727 5728 5729 5729 5731 5732 5733 5735 5736 5738 5740 5741
5752 5748 5745 5743 5739 5736 5734 5731 5729 5727 5725 5724 5722 5721 5720 5719 5718 5717 5717 5716 5716 5716 5716 5717 5717 5718 5718 5719 5720 5720 5721 5722 5724 5725 5727 5729 5731 5733
5744 5741 5738 5735 5731 5728 5725 5722 5720 5718 5716 5715 5713 5712 5711 5710 5709 5708 5707 5707 5707 5707 5707 5708 5708 5709 5709 5710 5710 5711 5712 5713 5715 5717 5719 5720 5722 5724
5737 5733 5730 5726 5723 5720 5716 5714 5711 5709 5707 5705 5704 5703 5701 5700 5699 5698 5698 5698 5698 5698 5698 5699 5699 5700 5700 5701 5702 5703 5704 5705 5706 5708 5710 5712 5714 5716
5729 5725 5721 5718 5714 5711 5707 5705 5702 5700 5698 5696 5694 5693 5692 5691 5690 5689 5689 5689 5689 5690 5690 5691 5691 5691 5692 5693 5694 5694 5696 5697 5698 5700 5702 5704 5706 5708
5720 5716 5713 5709 5706 5703 5700 5697 5694 5692 5689 5687 5686 5684 5683 5682 5681 5681 5680 5681 5681 5681 5682 5682 5683 5684 5685 5686 5686 5687 5688 5689 5690 5692 5694 5696 5698 5700
5712 5709 5705 5702 5698 5695 5692 5689 5686 5683 5681 5679 5677 5676 5674 5673 5673 5672 5672 5672 5673 5674 5674 5675 5676 5676 5677 5678 5679 5679 5680 5681 5683 5684 5686 5688 5690 5692
5705 5701 5698 5695 5691 5688 5685 5682 5679 5676 5674 5672 5669 5668 5666 5665 5665 5665 5665 5665 5666 5666 5667 5667 5668 5669 5670 5671 5672 5672 5673 5674 5675 5677 5679 5680 5682 5684
5698 5694 5691 5688 5685 5681 5678 5675 5672 5669 5667 5665 5663 5661 5660 5658 5658 5657 5658 5658 5658 5659 5659 5660 5661 5662 5662 5663 5664 5665 5666 5667 5668 5670 5672 5673 5675 5677
5691 5688 5684 5681 5678 5674 5671 5668 5665 5663 5660 5658 5656 5654 5653 5652 5651 5651 5651 5651 5651 5651 5652 5653 5654 5654 5655 5656 5657 5658 5660 5660 5661 5663 5664 5667 5668 5670
5684 5681 5678 5674 5670 5667 5664 5661 5658 5655 5653 5651 5649 5647 5646 5645 5644 5644 5644 5643 5644 5644 5645 5645 5646 5647 5648 5649 5650 5651 5653 5654 5655 5656 5658 5659 5661 5662
Wind_Speed
19 19 20 21 22 22 23 23 24 23 23 22 22 22 22 22 22 22 22 23 24 24 24 24 23 24 24 23 23 22 22 22 22 21 21 20 20 20
19 20 21 22 22 23 25 25 25 25 24 23 22 22 23 22 23 22 22 22 23 23 24 25 25 25 25 24 24 24 24 23 24 23 23 22 22 21
20 21 21 22 22 23 24 24 24 24 24 23 23 22 22 22 23 23 23 23 24 24 25 26 26 27 26 26 26 26 26 26 26 25 25 24 24 23
22 22 22 22 23 23 23 23 24 24 24 23 23 23 22 22 23 23 23 24 25 25 25 26 27 27 27 27 27 27 27 27 27 27 27 26 26 25
22 23 23 23 23 23 23 23 24 25 25 25 24 24 24 25 25 25 25 26 26 27 27 27 27 27 28 28 27 28 28 28 28 28 28 28 28 27
23 23 24 24 24 24 24 25 25 25 26 26 26 26 26 26 26 26 27 27 28 28 29 28 28 28 28 27 28 28 29 29 28 28 28 28 28 28
24 24 25 25 25 25 25 25 26 26 26 26 26 26 26 26 26 26 27 27 28 28 29 29 30 30 29 29 29 29 28 28 28 28 28 28 28 28
24 25 26 27 26 26 26 26 26 26 27 27 27 27 27 27 27 27 27 27 27 27 28 28 28 28 28 28 29 29 29 29 29 29 28 28 28 28
25 25 25 25 26 26 27 27 27 27 27 27 27 27 26 26 27 27 26 26 26 26 27 27 26 26 26 27 28 28 28 29 29 29 28 27 27 27
25 25 26 27 27 27 27 26 26 26 26 26 26 26 27 26 26 26 26 26 26 27 27 27 26 26 25 26 27 28 28 28 27 28 28 27 27 27
26 27 27 27 28 27 27 26 26 26 26 27 27 27 26 26 26 26 26 27 27 27 27 27 27 28 28 27 28 28 28 29 28 27 27 27 27 26
28 28 28 28 28 28 27 27 26 26 27 28 27 27 27 26 27 27 27 27 27 27 27 27 27 27 28 28 29 29 29 29 29 28 27 27 28 27
28 28 28 28 28 28 28 28 27 27 27 27 27 27 26 26 27 27 27 27 27 27 27 27 27 27 27 27 28 28 29 29 29 28 27 27 27 27
28 28 28 28 28 28 28 28 28 28 27 27 27 26 26 26 26 26 26 27 27 27 27 27 26 26 26 26 26 26 27 27 27 28 27 26 27 26
28 28 28 28 29 28 28 27 27 26 26 26 26 26 26 26 26 26 26 26 26 27 27 27 26 26 26 26 25 25 26 26 26 26 26 26 26 26
29 30 30 30 29 28 28 27 26 26 26 26 26 26 26 26 26 25 25 25 25 25 25 26 26 26 25 25 25 25 25 25 26 26 27 26 26 26
31 31 31 30 28 27 26 26 26 27 26 26 26 26 26 26 25 25 24 24 24 24 24 25 25 24 24 24 24 24 25 24 24 24 25 25 25 25
31 30 29 28 28 27 26 26 26 26 26 26 25 24 24 24 24 23 23 23 23 23 23 23 22 22 23 23 23 23 24 24 24 24 25 25 25 25
29 29 28 28 27 26 26 26 25 25 24 24 23 23 23 23 23 23 23 23 22 22 22 22 22 22 22 23 22 22 22 22 23 24 25 25 24 24
28 28 27 27 26 25 24 24 24 23 22 22 22 22 22 22 22 23 23 23 22 22 22 22 21 21 22 22 21 21 21 21 22 22 23 23 23 23
26 26 26 26 25 24 24 24 23 22 22 22 22 21 21 21 21 21 21 22 22 22 22 21 21 21 21 22 21 20 21 21 22 22 22 23 23 23
26 26 26 26 25 24 24 24 23 23 23 22 22 21 21 21 21 21 21 21 21 21 21 20 20 21 21 20 20 20 20 21 21 22 22 23 22 22
27 26 26 26 25 25 25 25 24 24 23 22 22 21 21 21 21 21 21 21 21 21 21 21 20 20 21 21 21 21 22 22 22 22 23 22 22 21
Wind_Direction
289 290 290 287 285 285 286 284 285 287 287 287 282 280 280 278 277 273 271 269 266 265 263 263 264 264 263 261 261 262 263 262 261 263 264 264 267 269
296 293 292 291 287 285 283 285 286 285 285 285 283 279 275 275 274 272 270 270 270 266 264 263 265 266 262 260 260 260 261 262 260 261 262 263 264 267
297 296 295 294 292 290 288 288 288 288 286 285 282 278 276 274 272 271 269 270 269 267 264 263 263 263 262 261 260 259 260 260 261 260 260 262 262 262
297 298 298 295 293 291 290 288 287 287 287 284 282 281 279 275 272 269 268 267 265 266 265 264 263 263 262 262 261 259 259 261 261 261 260 261 262 261
296 296 297 297 293 291 290 288 286 285 286 285 282 280 279 277 273 271 270 269 266 264 265 265 264 263 263 261 261 260 260 261 261 261 260 261 262 262
296 296 295 294 293 292 291 290 287 284 284 283 283 281 279 277 275 274 272 270 270 268 266 265 263 263 263 261 260 260 262 262 262 261 261 262 262 262
295 295 294 294 293 292 290 289 288 286 283 282 281 280 279 277 276 275 275 273 271 269 267 266 263 262 263 263 261 261 261 260 259 260 261 261 262 261
296 294 293 294 294 291 290 289 288 288 287 285 283 281 278 278 278 276 275 273 271 269 268 267 264 263 263 261 260 260 260 259 258 259 260 261 261 260
300 297 297 296 295 292 290 289 288 287 286 285 285 283 282 280 278 276 275 274 272 271 270 269 267 265 262 261 260 260 259 259 259 259 258 258 260 260
301 300 298 298 297 295 293 291 290 287 285 284 284 284 283 282 282 278 276 274 274 271 268 268 267 265 263 262 262 260 258 258 259 258 257 258 258 259
301 301 301 299 298 297 295 293 291 289 287 285 285 285 285 284 283 282 277 273 273 271 270 269 267 266 264 262 260 260 258 257 257 258 257 257 259 260
301 300 299 299 298 298 295 293 291 290 289 288 287 286 284 283 282 280 278 273 272 270 268 269 269 268 266 264 260 257 256 256 256 257 258 258 259 260
302 302 302 301 299 297 296 294 292 291 289 287 285 284 282 281 281 279 278 275 272 271 268 267 267 268 267 265 262 258 256 255 255 254 255 256 258 259
303 303 303 302 300 298 296 295 293 291 290 287 285 284 282 281 281 279 278 276 271 269 267 267 266 267 267 266 263 260 257 255 255 255 253 254 256 256
304 303 302 302 301 299 297 294 294 292 290 288 286 284 283 282 281 278 277 276 272 268 267 266 266 265 266 265 262 261 259 255 253 254 253 254 254 255
304 303 302 301 301 300 297 296 293 292 290 288 286 284 283 282 281 279 277 275 272 269 266 264 265 264 264 263 263 262 260 256 255 254 253 253 252 252
304 302 302 301 301 302 299 297 295 294 291 288 286 283 282 281 278 276 275 274 272 269 267 266 266 265 264 264 264 262 260 257 256 254 251 251 251 252
305 305 304 304 303 302 300 298 295 294 293 291 289 287 285 283 280 276 274 274 274 272 270 269 268 266 265 265 266 263 260 257 255 254 252 253 254 256
308 307 307 308 306 304 302 301 300 299 297 294 291 288 284 281 278 275 273 272 272 271 269 268 268 266 265 264 263 262 259 256 254 254 254 254 255 257
307 307 308 309 309 307 305 305 305 303 300 298 295 291 285 281 278 275 272 270 268 267 266 267 267 267 267 266 265 263 260 257 254 254 254 254 255 258
307 307 308 309 309 309 307 306 306 303 300 298 296 294 289 284 280 276 273 271 268 267 266 265 266 266 266 266 266 265 261 259 257 255 254 255 256 259
308 308 309 309 309 309 310 309 306 303 301 298 296 293 289 284 280 278 275 272 270 268 266 264 264 265 264 265 266 266 264 262 261 259 255 255 258 260
308 308 309 310 310 311 310 308 305 302 301 299 296 292 288 284 280 278 276 272 270 269 267 266 267 265 264 264 264 265 264 262 261 260 256 254 256 257